User: anonymous   Login
Location: Bovenkerk
(52.2915°N, 4.8336°E)
Time: 11:03:20
(UTC+00:00)
Language:

Cosmos 1535 Rocket - Orbit

View from above orbital plane
View from above orbital plane
View from above satellite
View from above satellite

Ground track
Ground track

The orbit data is extracted from the following two-line orbital elements,

1 14680U 84010B   20185.08920167  .00000014  00000-0 -13197-5 0  9993
2 14680  82.9574 296.9408 0037838 182.7751 350.7976 13.76515742829045
Epoch (UTC): 03 July 2020 02:08:27
Eccentricity: 0.0037838
inclination: 82.9574°
perigee height: 948 km
apogee height: 1004 km
right ascension of ascending node: 296.9408°
argument of perigee: 182.7751°
revolutions per day: 13.76515742
mean anomaly at epoch: 350.7976°
orbit number at epoch: 82904

The dashed part of the orbit path shows where the satellite is in the earth's shadow,  

DLR